Location: ??????
(38.0677°N, 22.9870°E)
Time: 14:51:51
(UTC+00:00)

OAO 3 Rocket - Pass Details

Date: 23 May 2024
Orbit: 622 x 671 km, 35.0° (Epoch: 13 June)

Event Time Altitude Azimuth Distance (km) Brightness Sun altitude
Exits shadow 02:24:13 - 268° (W) 2,397 5.6 -8.8°
Reaches altitude 10° 02:25:05 10° 265° (W) 2,089 5.2 -8.6°
Maximum altitude 02:29:33 36° 199° (SSW) 1,052 3.9 -7.9°
Drops below altitude 10° 02:33:58 10° 133° (SE) 2,069 5.9 -7.2°
Sets 02:36:27 0° 125° (SE) 2,972 6.9 -6.8°
